Location: Ar Ranvel
(48.3000°N, 4.8833°W)
Time: 14:51:55
(UTC+00:00)

Cosmos 1420 Rocket - Pass Details

Date: 16 June 2021
Orbit: 753 x 781 km, 74.0° (Epoch: 05 August)

Event Time Altitude Azimuth Distance (km) Brightness Sun altitude
Rises 21:17:53 0° 208° (SSW) 3,194 7.0 -7.5°
Reaches altitude 10° 21:20:14 10° 210° (SSW) 2,275 6.3 -7.8°
Maximum altitude 21:25:23 71° 294° (WNW) 804 4.3 -8.3°
Drops below altitude 10° 21:30:36 10° 19° (NNE) 2,303 6.9 -8.9°
Sets 21:33:00 0° 22° (NNE) 3,237 7.7 -9.1°
